When you browse on this site, cookies collect data to enhance your experience and personalize the content and advertising you see.
Visit our Privacy Policy to learn more. By continuing to use the site, you agree to this use of cookies and data.
  • In Hungary
  • List of Countries
  • For 7 days
  • Water Temperature
  • Weather Map
  • News
  • Weather Widgets
  • user-avatar
    Login

    Hourly Weather Stupishino

    Today, 23 February, Sunday

    Time Temperature Precipitation Wind Pressure Humidity
    00:00 -3°C° 0 mm 7 mps 746 mmHg 87%
    01:00 -4°C° 0 mm 8 mps 745 mmHg 86%
    02:00 -4°C° 0 mm 8 mps 744 mmHg 84%
    03:00 -4°C° 0 mm 8 mps 743 mmHg 84%
    04:00 -4°C° 0 mm 8 mps 742 mmHg 84%
    05:00 -4°C° 0 mm 9 mps 741 mmHg 85%
    06:00 -4°C° 0.8 mm 9 mps 740 mmHg 88%
    07:00 -4°C° 0.8 mm 9 mps 739 mmHg 92%
    08:00 -4°C° 0 mm 10 mps 738 mmHg 95%
    09:00 -4°C° 0.7 mm 10 mps 737 mmHg 96%
    10:00 -3°C° 0.7 mm 9 mps 736 mmHg 96%
    11:00 -3°C° 0.7 mm 9 mps 736 mmHg 97%
    12:00 -2°C° 0.4 mm 8 mps 735 mmHg 97%
    13:00 -1°C° 0.4 mm 6 mps 735 mmHg 97%
    14:00 0°C° 0 mm 5 mps 735 mmHg 96%
    15:00 0°C° 1.2 mm 5 mps 735 mmHg 96%
    16:00 -1°C° 1.2 mm 4 mps 734 mmHg 96%
    17:00 -1°C° 1.2 mm 4 mps 734 mmHg 95%
    18:00 -1°C° 0 mm 4 mps 734 mmHg 93%
    19:00 -2°C° 0 mm 4 mps 734 mmHg 90%
    20:00 -2°C° 0 mm 4 mps 734 mmHg 88%
    21:00 -2°C° 0 mm 4 mps 734 mmHg 88%
    22:00 -2°C° 0 mm 4 mps 734 mmHg 88%
    23:00 -2°C° 0 mm 4 mps 734 mmHg 88%

    Tomorrow, 24 February, Monday

    Time Temperature Precipitation Wind Pressure Humidity
    00:00 -3°C° 0 mm 4 mps 734 mmHg 89%
    01:00 -3°C° 0 mm 4 mps 733 mmHg 89%
    02:00 -3°C° 0 mm 4 mps 733 mmHg 90%
    03:00 -3°C° 0 mm 4 mps 733 mmHg 90%
    04:00 -4°C° 0 mm 3 mps 732 mmHg 91%
    05:00 -4°C° 0 mm 3 mps 732 mmHg 91%
    06:00 -4°C° 0 mm 3 mps 732 mmHg 91%
    07:00 -2°C° 0 mm 2 mps 732 mmHg 91%
    08:00 -2°C° 0 mm 2 mps 731 mmHg 91%
    09:00 -1°C° 0 mm 2 mps 731 mmHg 92%
    10:00 +1°C° 0 mm 1 mps 731 mmHg 92%
    11:00 +2°C° 0 mm 1 mps 730 mmHg 92%
    12:00 +2°C° 0 mm 1 mps 730 mmHg 92%
    13:00 +1°C° 0 mm 2 mps 730 mmHg 93%
    14:00 +1°C° 0 mm 2 mps 730 mmHg 93%
    15:00 +1°C° 0 mm 2 mps 730 mmHg 93%
    16:00 -1°C° 0 mm 2 mps 731 mmHg 93%
    17:00 -1°C° 0 mm 2 mps 731 mmHg 92%
    18:00 -1°C° 0 mm 3 mps 731 mmHg 92%
    19:00 -2°C° 0 mm 4 mps 732 mmHg 91%
    20:00 -2°C° 0 mm 4 mps 732 mmHg 90%
    21:00 -2°C° 0 mm 4 mps 733 mmHg 89%
    22:00 -4°C° 0 mm 5 mps 733 mmHg 88%
    23:00 -4°C° 0 mm 5 mps 733 mmHg 86%

    Day after tomorrow, 25 February, Tuesday

    Time Temperature Precipitation Wind Pressure Humidity
    00:00 -4°C° 0 mm 5 mps 734 mmHg 85%
    01:00 -4°C° 0 mm 6 mps 734 mmHg 83%
    02:00 -4°C° 0 mm 6 mps 735 mmHg 82%
    03:00 -5°C° 0 mm 6 mps 735 mmHg 81%
    04:00 -5°C° 0 mm 6 mps 736 mmHg 81%
    05:00 -5°C° 0 mm 5 mps 736 mmHg 80%
    06:00 -5°C° 0 mm 5 mps 736 mmHg 81%
    07:00 -5°C° 0 mm 5 mps 737 mmHg 82%
    08:00 -5°C° 0 mm 5 mps 738 mmHg 82%
    09:00 -4°C° 0 mm 5 mps 738 mmHg 79%
    10:00 -4°C° 0 mm 5 mps 738 mmHg 75%
    11:00 -2°C° 0 mm 5 mps 738 mmHg 72%
    12:00 -1°C° 0 mm 4 mps 738 mmHg 70%
    13:00 -1°C° 0 mm 4 mps 738 mmHg 69%
    14:00 -1°C° 0 mm 4 mps 738 mmHg 67%
    15:00 -1°C° 0 mm 4 mps 738 mmHg 71%
    16:00 -1°C° 0 mm 3 mps 738 mmHg 75%
    17:00 -2°C° 0 mm 3 mps 738 mmHg 79%
    18:00 -2°C° 0 mm 3 mps 737 mmHg 81%
    19:00 -3°C° 0 mm 4 mps 737 mmHg 83%
    20:00 -4°C° 0 mm 4 mps 737 mmHg 85%
    21:00 -4°C° 0 mm 5 mps 737 mmHg 87%
    22:00 -4°C° 0 mm 5 mps 736 mmHg 90%
    23:00 -4°C° 0 mm 6 mps 736 mmHg 92%

    26 February, Wednesday

    Time Temperature Precipitation Wind Pressure Humidity
    00:00 -4°C° 0.1 mm 6 mps 735 mmHg 93%
    01:00 -3°C° 0.1 mm 6 mps 735 mmHg 94%
    02:00 -3°C° 0.1 mm 6 mps 734 mmHg 95%
    03:00 -2°C° 0 mm 6 mps 734 mmHg 95%
    04:00 -2°C° 0 mm 6 mps 733 mmHg 95%
    05:00 -1°C° 0 mm 6 mps 733 mmHg 95%
    06:00 -1°C° 0 mm 6 mps 732 mmHg 94%
    07:00 -1°C° 0 mm 6 mps 732 mmHg 94%
    08:00 -1°C° 0 mm 6 mps 732 mmHg 93%
    09:00 -1°C° 0.1 mm 6 mps 731 mmHg 93%
    10:00 -1°C° 0.1 mm 6 mps 731 mmHg 93%
    11:00 -1°C° 0.1 mm 7 mps 731 mmHg 93%
    12:00 -1°C° 0.5 mm 7 mps 731 mmHg 94%
    13:00 -1°C° 0.5 mm 6 mps 731 mmHg 95%
    14:00 -1°C° 0.5 mm 6 mps 731 mmHg 96%
    15:00 -1°C° 0.4 mm 6 mps 731 mmHg 96%
    16:00 0°C° 0.4 mm 5 mps 731 mmHg 96%
    17:00 0°C° 0.4 mm 5 mps 731 mmHg 96%
    18:00 0°C° 0 mm 4 mps 731 mmHg 96%
    19:00 0°C° 0 mm 4 mps 732 mmHg 97%
    20:00 +1°C° 0 mm 3 mps 732 mmHg 97%
    21:00 0°C° 0 mm 3 mps 732 mmHg 97%
    22:00 0°C° 0 mm 3 mps 732 mmHg 97%
    23:00 +1°C° 0 mm 2 mps 732 mmHg 97%

    27 February, Thursday

    Time Temperature Precipitation Wind Pressure Humidity
    00:00 +1°C° 0 mm 2 mps 733 mmHg 97%
    01:00 +1°C° 0 mm 2 mps 733 mmHg 97%
    02:00 +2°C° 0 mm 1 mps 733 mmHg 97%
    03:00 +2°C° 0 mm 1 mps 733 mmHg 97%
    04:00 +2°C° 0 mm 1 mps 733 mmHg 97%
    05:00 +2°C° 0 mm 1 mps 733 mmHg 97%
    06:00 +2°C° 0 mm 1 mps 733 mmHg 97%
    07:00 +3°C° 0 mm 1 mps 733 mmHg 97%
    08:00 +2°C° 0 mm 2 mps 733 mmHg 97%
    09:00 +2°C° 0.1 mm 2 mps 733 mmHg 97%
    10:00 +2°C° 0.1 mm 3 mps 733 mmHg 97%
    11:00 +2°C° 0.1 mm 3 mps 733 mmHg 97%
    12:00 +2°C° 0.6 mm 3 mps 733 mmHg 98%
    13:00 +1°C° 0.6 mm 3 mps 732 mmHg 98%
    14:00 +1°C° 0.6 mm 3 mps 732 mmHg 98%
    15:00 0°C° 0.9 mm 4 mps 731 mmHg 98%
    16:00 0°C° 0.9 mm 4 mps 731 mmHg 98%
    17:00 0°C° 0.9 mm 4 mps 730 mmHg 98%
    18:00 0°C° 2.4 mm 4 mps 730 mmHg 98%
    19:00 +1°C° 2.4 mm 3 mps 730 mmHg 98%
    20:00 +2°C° 2.4 mm 3 mps 729 mmHg 98%
    21:00 +2°C° 0.3 mm 3 mps 729 mmHg 98%
    22:00 +2°C° 0.3 mm 3 mps 729 mmHg 98%
    23:00 +2°C° 0.3 mm 3 mps 729 mmHg 98%

    28 February, Friday

    Time Temperature Precipitation Wind Pressure Humidity
    00:00 +2°C° 0.6 mm 3 mps 729 mmHg 98%
    01:00 +2°C° 0.6 mm 3 mps 729 mmHg 98%
    02:00 +2°C° 0.6 mm 2 mps 729 mmHg 98%
    03:00 +1°C° 0.1 mm 3 mps 729 mmHg 98%
    04:00 +1°C° 0.1 mm 3 mps 729 mmHg 98%
    05:00 -1°C° 0.1 mm 4 mps 729 mmHg 98%
    06:00 -1°C° 1.1 mm 5 mps 729 mmHg 97%
    07:00 -2°C° 1.1 mm 5 mps 729 mmHg 97%
    08:00 -3°C° 1.1 mm 6 mps 730 mmHg 97%
    09:00 -3°C° 1.2 mm 6 mps 730 mmHg 97%
    10:00 -3°C° 1.2 mm 6 mps 730 mmHg 97%
    11:00 -3°C° 1.2 mm 7 mps 730 mmHg 96%
    12:00 -4°C° 0.7 mm 7 mps 730 mmHg 96%
    13:00 -4°C° 0.7 mm 7 mps 730 mmHg 95%
    14:00 -4°C° 0.7 mm 7 mps 731 mmHg 95%
    15:00 -4°C° 0.2 mm 6 mps 731 mmHg 89%
    16:00 -5°C° 0.2 mm 5 mps 732 mmHg 84%
    17:00 -4°C° 0.2 mm 4 mps 733 mmHg 79%
    18:00 -5°C° 0 mm 4 mps 734 mmHg 79%
    19:00 -7°C° 0 mm 4 mps 735 mmHg 80%
    20:00 -6°C° 0 mm 3 mps 735 mmHg 80%
    21:00 -7°C° 0 mm 3 mps 736 mmHg 81%
    22:00 -7°C° 0 mm 3 mps 736 mmHg 82%
    23:00 -7°C° 0 mm 3 mps 737 mmHg 83%
    Show more